{"data":{"norad_id":61522,"epoch":"2026-05-25T03:44:43.144224Z","epoch_age_seconds":54834,"freshness":"FRESH","line1":"1 61522U 24183P   26145.15605491  .00003426  00000+0  12724-3 0  9996","line2":"2 61522  53.1591 146.9843 0001377  65.1920 294.9224 15.30333793 91366","mean_motion":15.30333793,"eccentricity":0.0001377,"inclination_deg":53.1591,"raan_deg":146.9843,"arg_perigee_deg":65.192,"mean_anomaly_deg":294.9224,"bstar":0.00012724,"rev_number":9136,"period_min":94.097118327178,"perigee_km":473.87196516732,"apogee_km":475.75926831797,"semimajor_km":6852.9526167426,"source":"CELESTRAK","updated_at":"2026-05-25T13:38:19.394183Z"}}